Year,Month,Day,Hour,Minute,Value (Times are PST for temperature in C)
2012,08,17,00,00,23.90
2012,08,17,00,01,23.90
2012,08,17,00,02,23.90
2012,08,17,00,03,23.90
2012,08,17,00,04,23.90
2012,08,17,00,05,23.90
2012,08,17,00,06,24.00
2012,08,17,00,07,24.00
2012,08,17,00,08,24.00
2012,08,17,00,09,24.10
2012,08,17,00,10,24.10
2012,08,17,00,11,24.10
2012,08,17,00,12,24.10
2012,08,17,00,13,24.00
2012,08,17,00,14,24.00
2012,08,17,00,15,24.00
2012,08,17,00,16,23.90
2012,08,17,00,17,23.90
2012,08,17,00,18,23.80
2012,08,17,00,19,23.80
2012,08,17,00,20,23.80
2012,08,17,00,21,23.80
2012,08,17,00,22,23.80
2012,08,17,00,23,23.80
2012,08,17,00,24,23.80
2012,08,17,00,25,23.80
2012,08,17,00,26,23.80
2012,08,17,00,27,23.80
2012,08,17,00,28,23.80
2012,08,17,00,29,23.80
2012,08,17,00,30,23.80
2012,08,17,00,31,23.80
2012,08,17,00,32,23.80
2012,08,17,00,33,23.80
2012,08,17,00,34,23.80
2012,08,17,00,35,23.90
2012,08,17,00,36,23.80
2012,08,17,00,37,23.80
2012,08,17,00,38,23.80
2012,08,17,00,39,23.80
2012,08,17,00,40,23.80
2012,08,17,00,41,23.80
2012,08,17,00,42,23.80
2012,08,17,00,43,23.80
2012,08,17,00,44,23.80
2012,08,17,00,45,23.80
2012,08,17,00,46,23.80
2012,08,17,00,47,23.80
2012,08,17,00,48,23.80
2012,08,17,00,49,23.80
2012,08,17,00,50,23.80
2012,08,17,00,51,23.80
2012,08,17,00,52,23.80
2012,08,17,00,53,23.90
2012,08,17,00,54,23.90
2012,08,17,00,55,23.90
2012,08,17,00,56,23.80
2012,08,17,00,57,23.70
2012,08,17,00,58,23.60
2012,08,17,00,59,23.50
2012,08,17,01,00,23.30
2012,08,17,01,01,23.10
2012,08,17,01,02,22.90
2012,08,17,01,03,22.80
2012,08,17,01,04,22.60
2012,08,17,01,05,22.50
2012,08,17,01,06,22.40
2012,08,17,01,07,22.40
2012,08,17,01,08,22.40
2012,08,17,01,09,22.40
2012,08,17,01,10,22.40
2012,08,17,01,11,22.40
2012,08,17,01,12,22.40
2012,08,17,01,13,22.30
2012,08,17,01,14,22.30
2012,08,17,01,15,22.30
2012,08,17,01,16,22.20
2012,08,17,01,17,22.10
2012,08,17,01,18,22.00
2012,08,17,01,19,22.00
2012,08,17,01,20,21.90
2012,08,17,01,21,21.80
2012,08,17,01,22,21.70
2012,08,17,01,23,21.70
2012,08,17,01,24,21.60
2012,08,17,01,25,21.60
2012,08,17,01,26,21.60
2012,08,17,01,27,21.60
2012,08,17,01,28,21.60
2012,08,17,01,29,21.60
2012,08,17,01,30,21.50
2012,08,17,01,31,21.50
2012,08,17,01,32,21.40
2012,08,17,01,33,21.40
2012,08,17,01,34,21.30
2012,08,17,01,35,21.30
2012,08,17,01,36,21.30
2012,08,17,01,37,21.20
2012,08,17,01,38,21.20
2012,08,17,01,39,21.10
2012,08,17,01,40,21.00
2012,08,17,01,41,21.00
2012,08,17,01,42,20.90
2012,08,17,01,43,20.90
2012,08,17,01,44,20.80
2012,08,17,01,45,20.80
2012,08,17,01,46,20.80
2012,08,17,01,47,20.80
2012,08,17,01,48,20.80
2012,08,17,01,49,20.90
2012,08,17,01,50,20.90
2012,08,17,01,51,21.00
2012,08,17,01,52,21.00
2012,08,17,01,53,21.00
2012,08,17,01,54,21.00
2012,08,17,01,55,21.00
2012,08,17,01,56,21.00
2012,08,17,01,57,21.00
2012,08,17,01,58,21.00
2012,08,17,01,59,21.10
2012,08,17,02,00,21.10
2012,08,17,02,01,21.20
2012,08,17,02,02,21.20
2012,08,17,02,03,21.30
2012,08,17,02,04,21.30
2012,08,17,02,05,21.30
2012,08,17,02,06,21.40
2012,08,17,02,07,21.40
2012,08,17,02,08,21.40
2012,08,17,02,09,21.40
2012,08,17,02,10,21.40
2012,08,17,02,11,21.30
2012,08,17,02,12,21.30
2012,08,17,02,13,21.30
2012,08,17,02,14,21.30
2012,08,17,02,15,21.20
2012,08,17,02,16,21.20
2012,08,17,02,17,21.20
2012,08,17,02,18,21.20
2012,08,17,02,19,21.20
2012,08,17,02,20,21.20
2012,08,17,02,21,21.10
2012,08,17,02,22,21.10
2012,08,17,02,23,21.10
2012,08,17,02,24,21.10
2012,08,17,02,25,21.00
2012,08,17,02,26,21.00
2012,08,17,02,27,21.00
2012,08,17,02,28,20.90
2012,08,17,02,29,20.90
2012,08,17,02,30,20.90
2012,08,17,02,31,20.90
2012,08,17,02,32,20.90
2012,08,17,02,33,20.90
2012,08,17,02,34,20.90
2012,08,17,02,35,20.90
2012,08,17,02,36,20.80
2012,08,17,02,37,20.80
2012,08,17,02,38,20.80
2012,08,17,02,39,20.70
2012,08,17,02,40,20.70
2012,08,17,02,41,20.70
2012,08,17,02,42,20.70
2012,08,17,02,43,20.60
2012,08,17,02,44,20.60
2012,08,17,02,45,20.60
2012,08,17,02,46,20.60
2012,08,17,02,47,20.60
2012,08,17,02,48,20.60
2012,08,17,02,49,20.60
2012,08,17,02,50,20.50
2012,08,17,02,51,20.50
2012,08,17,02,52,20.50
2012,08,17,02,53,20.40
2012,08,17,02,54,20.40
2012,08,17,02,55,20.40
2012,08,17,02,56,20.40
2012,08,17,02,57,20.40
2012,08,17,02,58,20.40
2012,08,17,02,59,20.40
2012,08,17,03,00,20.40
2012,08,17,03,01,20.40
2012,08,17,03,02,20.40
2012,08,17,03,03,20.40
2012,08,17,03,04,20.40
2012,08,17,03,05,20.40
2012,08,17,03,06,20.30
2012,08,17,03,07,20.30
2012,08,17,03,08,20.30
2012,08,17,03,09,20.30
2012,08,17,03,10,20.30
2012,08,17,03,11,20.30
2012,08,17,03,12,20.30
2012,08,17,03,13,20.30
2012,08,17,03,14,20.30
2012,08,17,03,15,20.30
2012,08,17,03,16,20.30
2012,08,17,03,17,20.20
2012,08,17,03,18,20.20
2012,08,17,03,19,20.20
2012,08,17,03,20,20.20
2012,08,17,03,21,20.10
2012,08,17,03,22,20.00
2012,08,17,03,23,19.90
2012,08,17,03,24,19.90
2012,08,17,03,25,19.80
2012,08,17,03,26,19.80
2012,08,17,03,27,19.90
2012,08,17,03,28,19.90
2012,08,17,03,29,19.90
2012,08,17,03,30,19.80
2012,08,17,03,31,19.70
2012,08,17,03,32,19.70
2012,08,17,03,33,19.70
2012,08,17,03,34,19.60
2012,08,17,03,35,19.60
2012,08,17,03,36,19.50
2012,08,17,03,37,19.40
2012,08,17,03,38,19.40
2012,08,17,03,39,19.30
2012,08,17,03,40,19.30
2012,08,17,03,41,19.30
2012,08,17,03,42,19.30
2012,08,17,03,43,19.40
2012,08,17,03,44,19.40
2012,08,17,03,45,19.40
2012,08,17,03,46,19.40
2012,08,17,03,47,19.50
2012,08,17,03,48,19.40
2012,08,17,03,49,19.40
2012,08,17,03,50,19.50
2012,08,17,03,51,19.40
2012,08,17,03,52,19.40
2012,08,17,03,53,19.40
2012,08,17,03,54,19.30
2012,08,17,03,55,19.30
2012,08,17,03,56,19.20
2012,08,17,03,57,19.20
2012,08,17,03,58,19.20
2012,08,17,03,59,19.20
2012,08,17,04,00,19.10
2012,08,17,04,01,19.10
2012,08,17,04,02,19.20
2012,08,17,04,03,19.20
2012,08,17,04,04,19.20
2012,08,17,04,05,19.20
2012,08,17,04,06,19.10
2012,08,17,04,07,19.10
2012,08,17,04,08,19.10
2012,08,17,04,09,19.00
2012,08,17,04,10,19.00
2012,08,17,04,11,18.90
2012,08,17,04,12,18.90
2012,08,17,04,13,18.90
2012,08,17,04,14,18.80
2012,08,17,04,15,18.80
2012,08,17,04,16,18.80
2012,08,17,04,17,18.80
2012,08,17,04,18,18.80
2012,08,17,04,19,18.70
2012,08,17,04,20,18.70
2012,08,17,04,21,18.70
2012,08,17,04,22,18.60
2012,08,17,04,23,18.60
2012,08,17,04,24,18.60
2012,08,17,04,25,18.60
2012,08,17,04,26,18.70
2012,08,17,04,27,18.70
2012,08,17,04,28,18.70
2012,08,17,04,29,18.70
2012,08,17,04,30,18.70
2012,08,17,04,31,18.70
2012,08,17,04,32,18.70
2012,08,17,04,33,18.70
2012,08,17,04,34,18.70
2012,08,17,04,35,18.70
2012,08,17,04,36,18.60
2012,08,17,04,37,18.60
2012,08,17,04,38,18.50
2012,08,17,04,39,18.50
2012,08,17,04,40,18.60
2012,08,17,04,41,18.60
2012,08,17,04,42,18.70
2012,08,17,04,43,18.80
2012,08,17,04,44,18.80
2012,08,17,04,45,18.80
2012,08,17,04,46,18.80
2012,08,17,04,47,18.90
2012,08,17,04,48,18.90
2012,08,17,04,49,18.90
2012,08,17,04,50,18.90
2012,08,17,04,51,18.90
2012,08,17,04,52,18.90
2012,08,17,04,53,18.90
2012,08,17,04,54,18.90
2012,08,17,04,55,18.90
2012,08,17,04,56,18.90
2012,08,17,04,57,18.90
2012,08,17,04,58,18.90
2012,08,17,04,59,18.80
2012,08,17,05,00,18.80
2012,08,17,05,01,18.80
2012,08,17,05,02,18.80
2012,08,17,05,03,18.80
2012,08,17,05,04,18.80
2012,08,17,05,05,18.80
2012,08,17,05,06,18.70
2012,08,17,05,07,18.80
2012,08,17,05,08,18.80
2012,08,17,05,09,18.80
2012,08,17,05,10,18.80
2012,08,17,05,11,18.80
2012,08,17,05,12,18.80
2012,08,17,05,13,18.80
2012,08,17,05,14,18.80
2012,08,17,05,15,18.80
2012,08,17,05,16,18.80
2012,08,17,05,17,18.70
2012,08,17,05,18,18.70
2012,08,17,05,19,18.70
2012,08,17,05,20,18.70
2012,08,17,05,21,18.70
2012,08,17,05,22,18.70
2012,08,17,05,23,18.70
2012,08,17,05,24,18.60
2012,08,17,05,25,18.50
2012,08,17,05,26,18.50
2012,08,17,05,27,18.50
2012,08,17,05,28,18.40
2012,08,17,05,29,18.40
2012,08,17,05,30,18.40
2012,08,17,05,31,18.40
2012,08,17,05,32,18.40
2012,08,17,05,33,18.40
2012,08,17,05,34,18.40
2012,08,17,05,35,18.40
2012,08,17,05,36,18.40
2012,08,17,05,37,18.40
2012,08,17,05,38,18.40
2012,08,17,05,39,18.40
2012,08,17,05,40,18.50
2012,08,17,05,41,18.50
2012,08,17,05,42,18.50
2012,08,17,05,43,18.50
2012,08,17,05,44,18.50
2012,08,17,05,45,18.40
2012,08,17,05,46,18.40
2012,08,17,05,47,18.30
2012,08,17,05,48,18.30
2012,08,17,05,49,18.20
2012,08,17,05,50,18.10
2012,08,17,05,51,18.10
2012,08,17,05,52,18.10
2012,08,17,05,53,18.10
2012,08,17,05,54,18.10
2012,08,17,05,55,18.10
2012,08,17,05,56,18.10
2012,08,17,05,57,18.10
2012,08,17,05,58,18.10
2012,08,17,05,59,18.10
2012,08,17,06,00,18.10
2012,08,17,06,01,18.10
2012,08,17,06,02,18.10
2012,08,17,06,03,18.10
2012,08,17,06,04,18.00
2012,08,17,06,05,18.00
2012,08,17,06,06,18.00
2012,08,17,06,07,18.00
2012,08,17,06,08,18.00
2012,08,17,06,09,18.00
2012,08,17,06,10,18.00
2012,08,17,06,11,18.00
2012,08,17,06,12,18.00
2012,08,17,06,13,18.00
2012,08,17,06,14,18.00
2012,08,17,06,15,18.00
2012,08,17,06,16,18.00
2012,08,17,06,17,17.90
2012,08,17,06,18,17.90
2012,08,17,06,19,17.80
2012,08,17,06,20,17.80
2012,08,17,06,21,17.70
2012,08,17,06,22,17.70
2012,08,17,06,23,17.70
2012,08,17,06,24,17.70
2012,08,17,06,25,17.70
2012,08,17,06,26,17.70
2012,08,17,06,27,17.80
2012,08,17,06,28,17.80
2012,08,17,06,29,17.80
2012,08,17,06,30,17.80
2012,08,17,06,31,17.90
2012,08,17,06,32,17.90
2012,08,17,06,33,17.90
2012,08,17,06,34,17.90
2012,08,17,06,35,18.00
2012,08,17,06,36,18.00
2012,08,17,06,37,18.00
2012,08,17,06,38,18.00
2012,08,17,06,39,18.00
2012,08,17,06,40,18.00
2012,08,17,06,41,18.00
2012,08,17,06,42,18.00
2012,08,17,06,43,17.90
2012,08,17,06,44,17.90
2012,08,17,06,45,17.90
2012,08,17,06,46,17.90
2012,08,17,06,47,17.90
2012,08,17,06,48,17.90
2012,08,17,06,49,17.90
2012,08,17,06,50,17.90
2012,08,17,06,51,17.90
2012,08,17,06,52,17.90
2012,08,17,06,53,17.90
2012,08,17,06,54,18.00
2012,08,17,06,55,18.00
2012,08,17,06,56,18.00
2012,08,17,06,57,18.00
2012,08,17,06,58,18.00
2012,08,17,06,59,18.00
2012,08,17,07,00,18.00
2012,08,17,07,01,18.00
2012,08,17,07,02,18.00
2012,08,17,07,03,18.00
2012,08,17,07,04,18.10
2012,08,17,07,05,18.10
2012,08,17,07,06,18.10
2012,08,17,07,07,18.10
2012,08,17,07,08,18.10
2012,08,17,07,09,18.10
2012,08,17,07,10,18.10
2012,08,17,07,11,18.10
2012,08,17,07,12,18.10
2012,08,17,07,13,18.10
2012,08,17,07,14,18.10
2012,08,17,07,15,18.10
2012,08,17,07,16,18.10
2012,08,17,07,17,18.10
2012,08,17,07,18,18.10
2012,08,17,07,19,18.10
2012,08,17,07,20,18.10
2012,08,17,07,21,18.10
2012,08,17,07,22,18.10
2012,08,17,07,23,18.20
2012,08,17,07,24,18.20
2012,08,17,07,25,18.30
2012,08,17,07,26,18.30
2012,08,17,07,27,18.40
2012,08,17,07,28,18.40
2012,08,17,07,29,18.50
2012,08,17,07,30,18.60
2012,08,17,07,31,18.60
2012,08,17,07,32,18.70
2012,08,17,07,33,18.70
2012,08,17,07,34,18.80
2012,08,17,07,35,18.90
2012,08,17,07,36,18.90
2012,08,17,07,37,18.90
2012,08,17,07,38,19.00
2012,08,17,07,39,19.10
2012,08,17,07,40,19.10
2012,08,17,07,41,19.20
2012,08,17,07,42,19.30
2012,08,17,07,43,19.30
2012,08,17,07,44,19.40
2012,08,17,07,45,19.50
2012,08,17,07,46,19.60
2012,08,17,07,47,19.70
2012,08,17,07,48,19.70
2012,08,17,07,49,19.80
2012,08,17,07,50,19.90
2012,08,17,07,51,20.00
2012,08,17,07,52,20.10
2012,08,17,07,53,20.10
2012,08,17,07,54,20.20
2012,08,17,07,55,20.30
2012,08,17,07,56,20.40
2012,08,17,07,57,20.40
2012,08,17,07,58,20.50
2012,08,17,07,59,20.60
2012,08,17,08,00,20.70
2012,08,17,08,01,20.80
2012,08,17,08,02,20.90
2012,08,17,08,03,21.00
2012,08,17,08,04,21.10
2012,08,17,08,05,21.20
2012,08,17,08,06,21.20
2012,08,17,08,07,21.30
2012,08,17,08,08,21.30
2012,08,17,08,09,21.40
2012,08,17,08,10,21.40
2012,08,17,08,11,21.50
2012,08,17,08,12,21.50
2012,08,17,08,13,21.50
2012,08,17,08,14,21.50
2012,08,17,08,15,21.50
2012,08,17,08,16,21.50
2012,08,17,08,17,21.50
2012,08,17,08,18,21.40
2012,08,17,08,19,21.40
2012,08,17,08,20,21.40
2012,08,17,08,21,21.40
2012,08,17,08,22,21.30
2012,08,17,08,23,21.30
2012,08,17,08,24,21.30
2012,08,17,08,25,21.30
2012,08,17,08,26,21.30
2012,08,17,08,27,21.30
2012,08,17,08,28,21.30
2012,08,17,08,29,21.30
2012,08,17,08,30,21.30
2012,08,17,08,31,21.30
2012,08,17,08,32,21.30
2012,08,17,08,33,21.40
2012,08,17,08,34,21.40
2012,08,17,08,35,21.50
2012,08,17,08,36,21.60
2012,08,17,08,37,21.60
2012,08,17,08,38,21.70
2012,08,17,08,39,21.80
2012,08,17,08,40,21.90
2012,08,17,08,41,22.00
2012,08,17,08,42,22.10
2012,08,17,08,43,22.20
2012,08,17,08,44,22.20
2012,08,17,08,45,22.30
2012,08,17,08,46,22.30
2012,08,17,08,47,22.30
2012,08,17,08,48,22.30
2012,08,17,08,49,22.30
2012,08,17,08,50,22.30
2012,08,17,08,51,22.30
2012,08,17,08,52,22.20
2012,08,17,08,53,22.20
2012,08,17,08,54,22.10
2012,08,17,08,55,22.00
2012,08,17,08,56,21.90
2012,08,17,08,57,21.80
2012,08,17,08,58,21.80
2012,08,17,08,59,21.70
2012,08,17,09,00,21.70
2012,08,17,09,01,21.70
2012,08,17,09,02,21.60
2012,08,17,09,03,21.70
2012,08,17,09,04,21.70
2012,08,17,09,05,21.70
2012,08,17,09,06,21.70
2012,08,17,09,07,21.70
2012,08,17,09,08,21.70
2012,08,17,09,09,21.80
2012,08,17,09,10,21.90
2012,08,17,09,11,22.10
2012,08,17,09,12,22.20
2012,08,17,09,13,22.30
2012,08,17,09,14,22.30
2012,08,17,09,15,22.40
2012,08,17,09,16,22.50
2012,08,17,09,17,22.60
2012,08,17,09,18,22.70
2012,08,17,09,19,22.80
2012,08,17,09,20,22.90
2012,08,17,09,21,22.90
2012,08,17,09,22,22.90
2012,08,17,09,23,22.90
2012,08,17,09,24,23.00
2012,08,17,09,25,23.10
2012,08,17,09,26,23.10
2012,08,17,09,27,23.10
2012,08,17,09,28,23.10
2012,08,17,09,29,23.10
2012,08,17,09,30,23.00
2012,08,17,09,31,23.00
2012,08,17,09,32,23.00
2012,08,17,09,33,23.00
2012,08,17,09,34,23.00
2012,08,17,09,35,23.00
2012,08,17,09,36,23.00
2012,08,17,09,37,23.00
2012,08,17,09,38,23.10
2012,08,17,09,39,23.10
2012,08,17,09,40,23.20
2012,08,17,09,41,23.20
2012,08,17,09,42,23.30
2012,08,17,09,43,23.30
2012,08,17,09,44,23.30
2012,08,17,09,45,23.30
2012,08,17,09,46,23.30
2012,08,17,09,47,23.30
2012,08,17,09,48,23.30
2012,08,17,09,49,23.40
2012,08,17,09,50,23.50
2012,08,17,09,51,23.60
2012,08,17,09,52,23.60
2012,08,17,09,53,23.60
2012,08,17,09,54,23.50
2012,08,17,09,55,23.60
2012,08,17,09,56,23.70
2012,08,17,09,57,23.80
2012,08,17,09,58,24.00
2012,08,17,09,59,24.00
2012,08,17,10,00,24.00
2012,08,17,10,01,24.10
2012,08,17,10,02,24.10
2012,08,17,10,03,24.10
2012,08,17,10,04,24.00
2012,08,17,10,05,23.90
2012,08,17,10,06,23.80
2012,08,17,10,07,23.80
2012,08,17,10,08,23.70
2012,08,17,10,09,23.60
2012,08,17,10,10,23.60
2012,08,17,10,11,23.50
2012,08,17,10,12,23.50
2012,08,17,10,13,23.50
2012,08,17,10,14,23.50
2012,08,17,10,15,23.50
2012,08,17,10,16,23.50
2012,08,17,10,17,23.40
2012,08,17,10,18,23.50
2012,08,17,10,19,23.60
2012,08,17,10,20,23.70
2012,08,17,10,21,23.80
2012,08,17,10,22,23.90
2012,08,17,10,23,24.00
2012,08,17,10,24,24.10
2012,08,17,10,25,24.20
2012,08,17,10,26,24.20
2012,08,17,10,27,24.30
2012,08,17,10,28,24.40
2012,08,17,10,29,24.50
2012,08,17,10,30,24.60
2012,08,17,10,31,24.70
2012,08,17,10,32,24.70
2012,08,17,10,33,24.70
2012,08,17,10,34,24.60
2012,08,17,10,35,24.70
2012,08,17,10,36,24.60
2012,08,17,10,37,24.60
2012,08,17,10,38,24.60
2012,08,17,10,39,24.60
2012,08,17,10,40,24.70
2012,08,17,10,41,24.80
2012,08,17,10,42,24.80
2012,08,17,10,43,24.70
2012,08,17,10,44,24.50
2012,08,17,10,45,24.40
2012,08,17,10,46,24.40
2012,08,17,10,47,24.40
2012,08,17,10,48,24.50
2012,08,17,10,49,24.50
2012,08,17,10,50,24.60
2012,08,17,10,51,24.70
2012,08,17,10,52,24.90
2012,08,17,10,53,25.10
2012,08,17,10,54,25.20
2012,08,17,10,55,25.20
2012,08,17,10,56,25.20
2012,08,17,10,57,25.20
2012,08,17,10,58,25.20
2012,08,17,10,59,25.20
2012,08,17,11,00,25.20
2012,08,17,11,01,25.10
2012,08,17,11,02,24.90
2012,08,17,11,03,24.80
2012,08,17,11,04,24.70
2012,08,17,11,05,24.60
2012,08,17,11,06,24.50
2012,08,17,11,07,24.40
2012,08,17,11,08,24.40
2012,08,17,11,09,24.40
2012,08,17,11,10,24.40
2012,08,17,11,11,24.40
2012,08,17,11,12,24.40
2012,08,17,11,13,24.40
2012,08,17,11,14,24.40
2012,08,17,11,15,24.50
2012,08,17,11,16,24.70
2012,08,17,11,17,24.80
2012,08,17,11,18,25.00
2012,08,17,11,19,25.10
2012,08,17,11,20,25.10
2012,08,17,11,21,25.10
2012,08,17,11,22,25.10
2012,08,17,11,23,25.10
2012,08,17,11,24,25.10
2012,08,17,11,25,25.10
2012,08,17,11,26,25.00
2012,08,17,11,27,24.90
2012,08,17,11,28,25.00
2012,08,17,11,29,25.20
2012,08,17,11,30,25.30
2012,08,17,11,31,25.40
2012,08,17,11,32,25.50
2012,08,17,11,33,25.60
2012,08,17,11,34,25.70
2012,08,17,11,35,25.70
2012,08,17,11,36,25.70
2012,08,17,11,37,25.60
2012,08,17,11,38,25.60
2012,08,17,11,39,25.60
2012,08,17,11,40,25.60
2012,08,17,11,41,25.60
2012,08,17,11,42,25.60
2012,08,17,11,43,25.60
2012,08,17,11,44,25.80
2012,08,17,11,45,25.90
2012,08,17,11,46,26.10
2012,08,17,11,47,26.10
2012,08,17,11,48,26.00
2012,08,17,11,49,25.90
2012,08,17,11,50,25.90
2012,08,17,11,51,25.80
2012,08,17,11,52,25.70
2012,08,17,11,53,25.60
2012,08,17,11,54,25.60
2012,08,17,11,55,25.70
2012,08,17,11,56,25.70
2012,08,17,11,57,25.80
2012,08,17,11,58,25.90
2012,08,17,11,59,26.10
2012,08,17,12,00,26.20
2012,08,17,12,01,26.20
2012,08,17,12,02,26.20
2012,08,17,12,03,26.30
2012,08,17,12,04,26.50
2012,08,17,12,05,26.80
2012,08,17,12,06,26.90
2012,08,17,12,07,27.10
2012,08,17,12,08,27.20
2012,08,17,12,09,27.30
2012,08,17,12,10,27.30
2012,08,17,12,11,27.30
2012,08,17,12,12,27.40
2012,08,17,12,13,27.30
2012,08,17,12,14,27.20
2012,08,17,12,15,27.20
2012,08,17,12,16,27.30
2012,08,17,12,17,27.30
2012,08,17,12,18,27.20
2012,08,17,12,19,27.20
2012,08,17,12,20,27.10
2012,08,17,12,21,27.20
2012,08,17,12,22,27.20
2012,08,17,12,23,27.10
2012,08,17,12,24,27.10
2012,08,17,12,25,27.20
2012,08,17,12,26,27.30
2012,08,17,12,27,27.20
2012,08,17,12,28,27.10
2012,08,17,12,29,27.00
2012,08,17,12,30,26.80
2012,08,17,12,31,26.90
2012,08,17,12,32,27.00
2012,08,17,12,33,27.00
2012,08,17,12,34,27.20
2012,08,17,12,35,27.30
2012,08,17,12,36,27.30
2012,08,17,12,37,27.30
2012,08,17,12,38,27.30
2012,08,17,12,39,27.30
2012,08,17,12,40,27.30
2012,08,17,12,41,27.30
2012,08,17,12,42,27.40
2012,08,17,12,43,27.60
2012,08,17,12,44,27.70
2012,08,17,12,45,27.70
2012,08,17,12,46,27.70
2012,08,17,12,47,27.80
2012,08,17,12,48,27.90
2012,08,17,12,49,27.80
2012,08,17,12,50,27.80
2012,08,17,12,51,27.80
2012,08,17,12,52,27.80
2012,08,17,12,53,27.80
2012,08,17,12,54,27.80
2012,08,17,12,55,27.80
2012,08,17,12,56,27.70
2012,08,17,12,57,27.70
2012,08,17,12,58,27.70
2012,08,17,12,59,27.70
2012,08,17,13,00,27.70
2012,08,17,13,01,27.60
2012,08,17,13,02,27.70
2012,08,17,13,03,27.60
2012,08,17,13,04,27.50
2012,08,17,13,05,27.40
2012,08,17,13,06,27.40
2012,08,17,13,07,27.40
2012,08,17,13,08,27.30
2012,08,17,13,09,27.40
2012,08,17,13,10,27.50
2012,08,17,13,11,27.40
2012,08,17,13,12,27.40
2012,08,17,13,13,27.40
2012,08,17,13,14,27.50
2012,08,17,13,15,27.70
2012,08,17,13,16,27.60
2012,08,17,13,17,27.50
2012,08,17,13,18,27.50
2012,08,17,13,19,27.40
2012,08,17,13,20,27.30
2012,08,17,13,21,27.40
2012,08,17,13,22,27.30
2012,08,17,13,23,27.10
2012,08,17,13,24,27.00
2012,08,17,13,25,27.10
2012,08,17,13,26,27.10
2012,08,17,13,27,27.10
2012,08,17,13,28,27.30
2012,08,17,13,29,27.40
2012,08,17,13,30,27.40
2012,08,17,13,31,27.40
2012,08,17,13,32,27.40
2012,08,17,13,33,27.40
2012,08,17,13,34,27.70
2012,08,17,13,35,27.90
2012,08,17,13,36,28.10
2012,08,17,13,37,28.30
2012,08,17,13,38,28.40
2012,08,17,13,39,28.40
2012,08,17,13,40,28.30
2012,08,17,13,41,28.10
2012,08,17,13,42,28.00
2012,08,17,13,43,28.00
2012,08,17,13,44,28.00
2012,08,17,13,45,27.90
2012,08,17,13,46,27.70
2012,08,17,13,47,27.60
2012,08,17,13,48,27.70
2012,08,17,13,49,27.80
2012,08,17,13,50,27.70
2012,08,17,13,51,27.70
2012,08,17,13,52,27.70
2012,08,17,13,53,27.60
2012,08,17,13,54,27.50
2012,08,17,13,55,27.40
2012,08,17,13,56,27.50
2012,08,17,13,57,27.70
2012,08,17,13,58,27.80
2012,08,17,13,59,27.80
2012,08,17,14,00,27.80
2012,08,17,14,01,27.80
2012,08,17,14,02,27.90
2012,08,17,14,03,27.80
2012,08,17,14,04,27.60
2012,08,17,14,05,27.60
2012,08,17,14,06,27.50
2012,08,17,14,07,27.40
2012,08,17,14,08,27.40
2012,08,17,14,09,27.60
2012,08,17,14,10,27.80
2012,08,17,14,11,27.80
2012,08,17,14,12,28.00
2012,08,17,14,13,28.10
2012,08,17,14,14,27.90
2012,08,17,14,15,27.70
2012,08,17,14,16,27.60
2012,08,17,14,17,27.60
2012,08,17,14,18,27.70
2012,08,17,14,19,27.60
2012,08,17,14,20,27.60
2012,08,17,14,21,27.80
2012,08,17,14,22,27.90
2012,08,17,14,23,27.90
2012,08,17,14,24,27.90
2012,08,17,14,25,27.80
2012,08,17,14,26,27.80
2012,08,17,14,27,27.80
2012,08,17,14,28,27.80
2012,08,17,14,29,27.80
2012,08,17,14,30,27.80
2012,08,17,14,31,27.80
2012,08,17,14,32,27.90
2012,08,17,14,33,28.10
2012,08,17,14,34,28.30
2012,08,17,14,35,28.40
2012,08,17,14,36,28.20
2012,08,17,14,37,28.10
2012,08,17,14,38,28.30
2012,08,17,14,39,28.40
2012,08,17,14,40,28.60
2012,08,17,14,41,28.60
2012,08,17,14,42,28.60
2012,08,17,14,43,28.40
2012,08,17,14,44,28.20
2012,08,17,14,45,28.20
2012,08,17,14,46,28.10
2012,08,17,14,47,28.00
2012,08,17,14,48,27.80
2012,08,17,14,49,27.70
2012,08,17,14,50,27.70
2012,08,17,14,51,27.80
2012,08,17,14,52,27.80
2012,08,17,14,53,27.70
2012,08,17,14,54,27.60
2012,08,17,14,55,27.50
2012,08,17,14,56,27.40
2012,08,17,14,57,27.50
2012,08,17,14,58,27.70
2012,08,17,14,59,27.80
2012,08,17,15,00,27.70
2012,08,17,15,01,27.70
2012,08,17,15,02,27.90
2012,08,17,15,03,27.90
2012,08,17,15,04,27.90
2012,08,17,15,05,27.90
2012,08,17,15,06,27.90
2012,08,17,15,07,27.90
2012,08,17,15,08,28.10
2012,08,17,15,09,28.20
2012,08,17,15,10,28.10
2012,08,17,15,11,28.00
2012,08,17,15,12,27.80
2012,08,17,15,13,27.80
2012,08,17,15,14,27.70
2012,08,17,15,15,27.60
2012,08,17,15,16,27.60
2012,08,17,15,17,27.60
2012,08,17,15,18,27.60
2012,08,17,15,19,27.60
2012,08,17,15,20,27.60
2012,08,17,15,21,27.60
2012,08,17,15,22,27.70
2012,08,17,15,23,27.70
2012,08,17,15,24,27.70
2012,08,17,15,25,27.70
2012,08,17,15,26,27.90
2012,08,17,15,27,27.90
2012,08,17,15,28,27.90
2012,08,17,15,29,27.90
2012,08,17,15,30,27.80
2012,08,17,15,31,27.80
2012,08,17,15,32,27.70
2012,08,17,15,33,27.60
2012,08,17,15,34,27.50
2012,08,17,15,35,27.50
2012,08,17,15,36,27.40
2012,08,17,15,37,27.40
2012,08,17,15,38,27.40
2012,08,17,15,39,27.40
2012,08,17,15,40,27.40
2012,08,17,15,41,27.50
2012,08,17,15,42,27.60
2012,08,17,15,43,27.70
2012,08,17,15,44,27.70
2012,08,17,15,45,27.80
2012,08,17,15,46,27.90
2012,08,17,15,47,27.90
2012,08,17,15,48,27.90
2012,08,17,15,49,27.90
2012,08,17,15,50,27.90
2012,08,17,15,51,27.90
2012,08,17,15,52,28.00
2012,08,17,15,53,28.00
2012,08,17,15,54,28.10
2012,08,17,15,55,28.10
2012,08,17,15,56,28.00
2012,08,17,15,57,28.00
2012,08,17,15,58,28.00
2012,08,17,15,59,28.10
2012,08,17,16,00,28.20
2012,08,17,16,01,28.20
2012,08,17,16,02,28.20
2012,08,17,16,03,28.20
2012,08,17,16,04,28.30
2012,08,17,16,05,28.50
2012,08,17,16,06,28.60
2012,08,17,16,07,28.60
2012,08,17,16,08,28.50
2012,08,17,16,09,28.40
2012,08,17,16,10,28.30
2012,08,17,16,11,28.30
2012,08,17,16,12,28.30
2012,08,17,16,13,28.30
2012,08,17,16,14,28.30
2012,08,17,16,15,28.40
2012,08,17,16,16,28.50
2012,08,17,16,17,28.60
2012,08,17,16,18,28.60
2012,08,17,16,19,28.40
2012,08,17,16,20,28.30
2012,08,17,16,21,28.20
2012,08,17,16,22,28.20
2012,08,17,16,23,28.10
2012,08,17,16,24,28.00
2012,08,17,16,25,27.90
2012,08,17,16,26,28.00
2012,08,17,16,27,28.20
2012,08,17,16,28,28.20
2012,08,17,16,29,28.20
2012,08,17,16,30,28.20
2012,08,17,16,31,28.10
2012,08,17,16,32,28.20
2012,08,17,16,33,28.20
2012,08,17,16,34,28.10
2012,08,17,16,35,28.00
2012,08,17,16,36,27.90
2012,08,17,16,37,27.90
2012,08,17,16,38,28.00
2012,08,17,16,39,28.10
2012,08,17,16,40,28.00
2012,08,17,16,41,28.00
2012,08,17,16,42,27.90
2012,08,17,16,43,27.90
2012,08,17,16,44,27.80
2012,08,17,16,45,27.80
2012,08,17,16,46,27.80
2012,08,17,16,47,27.80
2012,08,17,16,48,27.80
2012,08,17,16,49,27.80
2012,08,17,16,50,27.80
2012,08,17,16,51,27.70
2012,08,17,16,52,27.70
2012,08,17,16,53,27.80
2012,08,17,16,54,27.80
2012,08,17,16,55,27.80
2012,08,17,16,56,27.80
2012,08,17,16,57,27.90
2012,08,17,16,58,28.00
2012,08,17,16,59,28.10
2012,08,17,17,00,28.20
2012,08,17,17,01,28.30
2012,08,17,17,02,28.30
2012,08,17,17,03,28.20
2012,08,17,17,04,28.20
2012,08,17,17,05,28.30
2012,08,17,17,06,28.40
2012,08,17,17,07,28.40
2012,08,17,17,08,28.40
2012,08,17,17,09,28.40
2012,08,17,17,10,28.40
2012,08,17,17,11,28.30
2012,08,17,17,12,28.30
2012,08,17,17,13,28.20
2012,08,17,17,14,28.10
2012,08,17,17,15,28.20
2012,08,17,17,16,28.20
2012,08,17,17,17,28.10
2012,08,17,17,18,28.10
2012,08,17,17,19,28.10